Regional Weather Roundup
Issued by NWS Newport/Morehead, NC

Current Version | Previous Version | Text Only | Print | Product List | Glossary Off
Versions: 1 2 3 4 5 6 7 8 9 10 11 12 13 14 15 16 17 18 19 20 21 22 23 24 25 26 27 28 29 30 31 32 33 34 35 36 37 38 39 40 41 42 43 44 45 46 47 48 49 50
000 ASUS42 KMHX 190513 RWRMHX WEATHER ROUNDUP FOR EASTERN NORTH CAROLINA NATIONAL WEATHER SERVICE NEWPORT/MOREHEAD CITY NC 1200 AM EST SUN FEB 19 2017 NOTE: "FAIR" INDICATES FEW OR NO CLOUDS BELOW 12,000 FEET WITH NO SIGNIFICANT WEATHER AND/OR OBSTRUCTIONS TO VISIBILITY NCZ015>017-031-032-045>047-102-103-190600- NORTH COAST CITY SKY/WX TMP DP RH WIND PRES REMARKS EDENTON CLOUDY 60 42 50 SW8 29.90R ELIZABETH CITY MOCLDY 59 41 51 S13 29.88R KITTY HAWK NOT AVBL MANTEO CLOUDY 56 44 62 SW12 29.89S $$ NCZ045>047-081-094-103-104-190600- CENTRAL COAST CITY SKY/WX TMP DP RH WIND PRES REMARKS FRISCO CLOUDY 61 53 75 SW14G22 29.93R HAZE $$ NCZ095-097-098-100-101-190600- SOUTHERN COAST CITY SKY/WX TMP DP RH WIND PRES REMARKS BEAUFORT CLOUDY 56 52 86 SW7 29.94F CEDAR ISLAND NOT AVBL JACKSONVILLE NOT AVBL PINEY ISLAND CLOUDY N/A N/A N/A S7 29.93S WILMINGTON PTCLDY 57 49 74 S5 29.95R $$ NCZ011>013-027>030-043-044-078>080-089-090>093-098-190600- COASTAL PLAIN CITY SKY/WX TMP DP RH WIND PRES REMARKS AHOSKIE N/A 61 40 44 CALM 29.88R CLINTON CLOUDY 58 42 55 CALM 29.94S ELIZABETHTOWN PTCLDY 58 42 54 W5 29.94S GOLDSBORO CLOUDY 58 40 50 SW7 29.91R GREENVILLE DRIZZLE 57 45 62 SW8 29.94R HAVELOCK CLOUDY 57 45 64 S5 29.94S KENANSVILLE NOT AVBL KINSTON CLOUDY 58 41 52 S3 29.93F NEW BERN CLOUDY 60 42 51 SW5 29.94S RICHLANDS CLOUDY 57 44 62 S5 29.93F ROCKY MOUNT CLOUDY 58 43 57 SW7 29.91R WASHINGTON CLOUDY 60 41 48 SW8 29.92R WHITEVILLE PTCLDY 57 43 60 CALM 29.95S $$ AMZ130-135-150-152-154-156-158-170-250-252-270-ANZ085-086-088-633-658-670-190600- MARINE OBSERVATIONS STATION/POSITION TIME TEMP WIND PRES WAVE SWELL AIR SEA DIR/SP/G HT/PER HT/PER (UTC) (F) (DEG/KT/KT) (MB) (FT/S) (FT/S) CHESAPEAKE LIGHT NOT AVBL 64 E VA BEACH 0450 54 51 220/ 14/ 16 1010.4 4/ 6 2/11 DUCK 0436 59 47 220/ 15/ 19 1011.0 2 E DUCK 0500 48 N/A 1/ 9 OREGON INLET 0436 53 51 210/ 15/ 17 1012.3 13E OREGON INLT NOT AVBL HATTERAS CG 0436 60 56 230/ 13/ 18 1013.2 DIAMOND BUOY 0450 67 67 240/ 19/ 23 1013.4 4/ 5 2/ 8 CAPE LOOKOUT 0500 60 220/ 9/ 12 1013.6 BEAUFORT LAB 0436 56 51 240/ 3/ 7 1013.0 30 SE NEW RVR IN 0408 65 230/ 12/ 16 1014.4 30 SE NEW RVR IN 0443 66 N/A 3/ 5 27 SE WRIGHTSVLE 0408 62 62 230/ 10/ 14 1013.7 5 SE WRIGHTSVLE NOT AVBL 225 S CAPE HAT 0450 70 71 180/ 16/ 19 1016.7 4/ 6 2/10 41 SE CHARLESTON 0450 65 69 280/ 10/ 12 1014.4 2/ 5 2/ 5 $$

USA.gov is the U.S. government's official web portal to all federal, state and local government web resources and services.